THOR ABLESTAR DEB, 243

Orbit data source: Space-Track

THOR ABLESTAR DEB, 243 is space debris in LEO originally from a launch on Thu, 29 Jun 1961 UTC launched from the Air Force Eastern Test Range (AFETR). Debris objects in space refer to the collection of defunct objects orbiting the Earth. Examples of debris include non-operational satellites, rocket bodies, and fragments generated from explosions, collisions, or faulty payload assembly.

Loading next visibility...
Identifier
243, 1961-015BY
Orbit
LEO
Country
Flag of USUS
Related business
Manufacturer
Unknown
Mission
Spacecraft
Bus & Motor
Unknown
Mass
Unknown
Launch date (UTC)
1961-06-29 (65 years ago)
Launch vehicle
Unknown
Launch site
Air Force Eastern Test Range (AFETR)
Object type
Payload
Rocket body
Debris
Shape & HBR
Unknown shape, 0.1 m
Radar Cross Section
Small (<0.1 m²)

Expand to show TLE details & history
Last TLE update: 13 hours ago

TLE from 13 hours ago
0 THOR ABLESTAR DEB
1 00243U 61015BY  26104.17699476  .00000475  00000-0  36471-3 0  9994
2 00243  66.4620 165.2198 0020265 144.5662 215.6771 14.01846319274324
Epoch: 2026-04-14T04:14Z
TLE epoch observation values (Epoch: 2026-04-14T04:14:52.347Z)
Latitude
0.00003°
Longitude
-100.85529°
Altitude
901.441 km
Speed
7.396 km/s
True Right ascension
11h 00m 52s
True Declination
0° 00' 00"
Sunlit
Object was in full shadow at epoch
Visualization orbit readout
Latitude
Unknown
Longitude
Unknown
Altitude
Unknown
Speed
Unknown
Apparent Right ascension
Unknown
Apparent Declination
Unknown
Sunlit
N/A
Visualization observer readout
Local Sidereal Time
23:46:46
Azimuth
Unknown
Elevation
Unknown
Doppler factor
Unknown
Orbital elements
Apogee altitude
900.553 km
Perigee altitude
871.112 km
Semi-major axis
7,263.97 km
Eccentricity
0.00203
Inclination
66.462°
RAAN
165.2198°
Arg. of periapsis
144.5662°
True anomaly
215.54194°
Mean anomaly
215.6771°
Eccentric anomaly
215.60949°
Mean motion
3.50576 °/min
Orbital period
102.69 mins
BSTAR
0.00036471
Loading maneuver chart data...
Computing Atmospheric mass density...

Documentation

Showing up to 5 results
|